Weather in Lorino

Russia / Chukotka Autonomous Okrug     65°30′09″N   171°42′01″W
temp.,
°C
wind,
m/s
gust,
m/s
humid.,
%
clouds,
%
prec.,
mm/h
press.,
hPa
HPBL,
m
29 january, fri
fri2900:00−20nnw6886100 0.0 1007199
03:00−21n6885100 0.0 1006217
06:00−22nnw6985100 0.0 1005233
09:00−23nnw7984100 0.0 1006320
12:00−24nnw81084100 0.0 1007307
15:00−25nnw81184100 0.0 1007315
18:00−27nw81185100 0.0 1009316
21:00−29nw9138796 0.0 1010288
30 january, sat
sat3000:00−29nw9138995 0.0 1012286
03:00−27nw9138798 0.0 1014264
06:00−28nw9128964 0.0 1017221
09:00−29nw912890 0.0 1019213
12:00−29nw912890 0.0 1023225
15:00−30nw811890 0.0 1025184
18:00−30nw810880 0.0 1027156
21:00−31nw79870 0.0 1029136
31 january, sun
sun3100:00−30nnw79870 0.0 1031132
03:00−30nw56870 0.0 103295
06:00−31nw45880 0.0 103478
09:00−31nw44870 0.0 103567
12:00−30nw34880 0.0 103671
15:00−31nnw23880 0.0 103640
18:00−30nnw23880 0.0 103634
21:00−29n238833 0.0 103734
1 february, mon
mon100:00−27n128461 0.0 103790
03:00−26n128692 0.0 103684
06:00−25nne128694 0.0 103586
09:00−26nne228562 0.0 103340
12:00−24ne338180 0.0 1032128
15:00−24nne3481100 0.0 103079
18:00−22ne587597 0.0 1028194
21:00−22ne6127398 0.0 1027240
2 february, tue
tue200:00−23ene7137599 0.0 1026266
03:00−23ne71475100 0.0 1024347
06:00−23ne71574100 0.0 1023300
09:00−24ene61175100 0.0 1023213
12:00−23ne6973100 0.0 1023202
15:00−25ne5576100 0.0 102390
18:00−26nne467699 0.0 1023135
21:00−24nne4107042 0.0 1022149